Location: Newark
(40.9833°N, 0.0333°W)
Time: 00:09:51
(UTC+00:00)

Altair - Pass Details

Date: 05 November 2020
Orbit: 1502 x 1682 km, 47.2° (Epoch: 03 December)

Event Time Altitude Azimuth Distance (km) Brightness Sun altitude
Rises 10:50:08 0° 294° (WNW) 4,763 9.8 31.8°
Reaches altitude 10° 10:53:51 10° 282° (WNW) 3,804 9.4 32.0°
Maximum altitude 11:01:16 26° 231° (SW) 2,815 9.5 32.3°
Drops below altitude 10° 11:08:52 10° 181° (S) 3,894 11.1 32.6°
Sets 11:12:46 0° 169° (S) 4,897 11.2 32.7°
